Time,TemperatureF,DewpointF,PressureIn,WindDirection,WindDirectionDegrees,WindSpeedMPH,WindSpeedGustMPH,Humidity,HourlyPrecipIn,Conditions,Clouds,dailyrainin,SoftwareType,DateUTC
2013-03-31 00:02:00,67.8,66.9,29.94,South,184,8.0,13.0,97,0.00,,,-99.99,FreeWX 2.03,2013-03-31 05:02:00,
2013-03-31 00:07:00,67.6,66.7,29.94,South,181,8.0,13.0,97,0.00,,,-99.99,FreeWX 2.03,2013-03-31 05:07:00,
2013-03-31 00:12:00,67.6,66.7,29.94,South,180,7.0,13.9,97,0.00,,,-99.99,FreeWX 2.03,2013-03-31 05:12:00,
2013-03-31 00:17:00,67.6,66.7,29.94,South,181,7.0,13.4,97,0.00,,,-99.99,FreeWX 2.03,2013-03-31 05:17:00,
2013-03-31 00:22:00,67.6,66.7,29.94,South,181,8.0,13.0,97,0.00,,,-99.99,FreeWX 2.03,2013-03-31 05:22:00,
2013-03-31 00:27:00,67.6,66.7,29.94,South,179,8.0,13.9,97,0.00,,,-99.99,FreeWX 2.03,2013-03-31 05:27:00,
2013-03-31 00:32:00,67.5,66.6,29.94,South,181,8.0,15.4,97,0.00,,,-99.99,FreeWX 2.03,2013-03-31 05:32:00,
2013-03-31 00:37:00,67.5,66.6,29.94,South,183,8.0,13.0,97,0.00,,,-99.99,FreeWX 2.03,2013-03-31 05:37:00,
2013-03-31 00:42:00,67.5,66.6,29.94,South,181,7.0,13.4,97,0.00,,,-99.99,FreeWX 2.03,2013-03-31 05:42:00,
2013-03-31 00:47:00,67.5,66.6,29.94,South,180,7.0,13.0,97,0.00,,,-99.99,FreeWX 2.03,2013-03-31 05:47:00,
2013-03-31 00:52:00,67.5,66.6,29.94,South,178,7.0,14.3,97,0.00,,,-99.99,FreeWX 2.03,2013-03-31 05:52:00,
2013-03-31 00:57:00,67.5,66.6,29.94,South,179,8.0,14.3,97,0.00,,,-99.99,FreeWX 2.03,2013-03-31 05:57:00,
2013-03-31 01:02:00,67.3,66.4,29.94,South,180,8.0,14.3,97,0.00,,,-99.99,FreeWX 2.03,2013-03-31 06:02:00,
2013-03-31 01:07:00,67.3,66.4,29.94,South,180,8.0,16.3,97,0.00,,,-99.99,FreeWX 2.03,2013-03-31 06:07:00,
2013-03-31 01:12:00,67.3,66.7,29.94,South,179,8.0,15.2,98,0.00,,,-99.99,FreeWX 2.03,2013-03-31 06:12:00,
2013-03-31 01:17:00,67.5,66.9,29.94,South,178,8.0,13.0,98,0.00,,,-99.99,FreeWX 2.03,2013-03-31 06:17:00,
2013-03-31 01:22:00,67.5,66.9,29.94,South,180,8.0,13.9,98,0.00,,,-99.99,FreeWX 2.03,2013-03-31 06:22:00,
2013-03-31 01:27:00,67.3,66.7,29.91,South,181,8.0,16.3,98,0.00,,,-99.99,FreeWX 2.03,2013-03-31 06:27:00,
2013-03-31 01:32:00,67.3,66.7,29.91,South,183,8.0,13.9,98,0.00,,,-99.99,FreeWX 2.03,2013-03-31 06:32:00,
2013-03-31 01:37:00,67.3,66.7,29.91,South,183,8.0,15.4,98,0.00,,,-99.99,FreeWX 2.03,2013-03-31 06:37:00,
2013-03-31 01:42:00,67.3,66.7,29.91,South,181,8.0,16.3,98,0.00,,,-99.99,FreeWX 2.03,2013-03-31 06:42:00,
2013-03-31 01:47:00,67.3,66.7,29.91,South,180,7.0,13.4,98,0.00,,,-99.99,FreeWX 2.03,2013-03-31 06:47:00,
2013-03-31 01:52:00,67.3,66.7,29.91,South,181,7.0,12.1,98,0.00,,,-99.99,FreeWX 2.03,2013-03-31 06:52:00,
2013-03-31 01:57:00,67.1,66.6,29.91,South,182,8.0,15.9,98,0.00,,,-99.99,FreeWX 2.03,2013-03-31 06:57:00,
2013-03-31 02:02:00,67.1,66.6,29.91,South,180,8.0,16.8,98,0.00,,,-99.99,FreeWX 2.03,2013-03-31 07:02:00,
2013-03-31 02:08:00,67.1,66.6,29.91,South,180,8.0,13.4,98,0.00,,,-99.99,FreeWX 2.03,2013-03-31 07:08:00,
2013-03-31 02:13:00,67.1,66.6,29.91,South,181,8.0,13.9,98,0.00,,,-99.99,FreeWX 2.03,2013-03-31 07:13:00,
2013-03-31 02:18:00,67.1,66.6,29.91,South,182,8.0,14.3,98,0.00,,,-99.99,FreeWX 2.03,2013-03-31 07:18:00,
2013-03-31 02:23:00,66.9,66.4,29.91,South,182,8.0,15.4,98,0.00,,,-99.99,FreeWX 2.03,2013-03-31 07:23:00,
2013-03-31 02:28:00,67.1,66.6,29.91,South,183,8.0,14.8,98,0.00,,,-99.99,FreeWX 2.03,2013-03-31 07:28:00,
2013-03-31 02:33:00,67.1,66.6,29.91,South,184,8.0,15.9,98,0.00,,,-99.99,FreeWX 2.03,2013-03-31 07:33:00,
2013-03-31 02:38:00,67.1,66.6,29.91,South,185,8.0,13.0,98,0.00,,,-99.99,FreeWX 2.03,2013-03-31 07:38:00,
2013-03-31 02:43:00,67.1,66.6,29.91,South,185,8.0,12.1,98,0.00,,,-99.99,FreeWX 2.03,2013-03-31 07:43:00,
2013-03-31 02:48:00,66.9,66.4,29.91,South,184,8.0,13.0,98,0.00,,,-99.99,FreeWX 2.03,2013-03-31 07:48:00,
2013-03-31 02:53:00,67.1,66.6,29.91,South,185,7.0,13.4,98,0.00,,,-99.99,FreeWX 2.03,2013-03-31 07:53:00,
2013-03-31 02:58:00,67.1,66.6,29.91,South,184,7.0,12.1,98,0.00,,,-99.99,FreeWX 2.03,2013-03-31 07:58:00,
2013-03-31 03:03:00,66.9,66.4,29.91,South,183,7.0,13.4,98,0.00,,,-99.99,FreeWX 2.03,2013-03-31 08:03:00,
2013-03-31 03:08:00,66.9,66.4,29.91,South,185,8.0,14.8,98,0.00,,,-99.99,FreeWX 2.03,2013-03-31 08:08:00,
2013-03-31 03:13:00,66.9,66.4,29.91,South,186,8.0,12.1,98,0.00,,,-99.99,FreeWX 2.03,2013-03-31 08:13:00,
2013-03-31 03:18:00,66.9,66.4,29.91,South,185,7.0,12.1,98,0.00,,,-99.99,FreeWX 2.03,2013-03-31 08:18:00,
2013-03-31 03:23:00,67.1,66.6,29.91,South,184,7.0,13.4,98,0.00,,,-99.99,FreeWX 2.03,2013-03-31 08:23:00,
2013-03-31 03:28:00,67.1,66.6,29.88,South,184,8.0,14.8,98,0.00,,,-99.99,FreeWX 2.03,2013-03-31 08:28:00,
2013-03-31 03:33:00,66.9,66.4,29.88,South,185,8.0,13.9,98,0.00,,,-99.99,FreeWX 2.03,2013-03-31 08:33:00,
2013-03-31 03:38:00,66.9,66.4,29.88,South,186,8.0,13.4,98,0.00,,,-99.99,FreeWX 2.03,2013-03-31 08:38:00,
2013-03-31 03:43:00,66.9,66.4,29.88,South,186,7.0,11.6,98,0.00,,,-99.99,FreeWX 2.03,2013-03-31 08:43:00,
2013-03-31 03:48:00,66.9,66.4,29.88,South,184,7.0,14.3,98,0.00,,,-99.99,FreeWX 2.03,2013-03-31 08:48:00,
2013-03-31 03:53:00,66.9,66.4,29.88,South,182,7.0,13.0,98,0.00,,,-99.99,FreeWX 2.03,2013-03-31 08:53:00,
2013-03-31 03:58:00,66.9,66.4,29.88,South,183,8.0,14.3,98,0.00,,,-99.99,FreeWX 2.03,2013-03-31 08:58:00,
2013-03-31 04:03:00,66.9,66.4,29.88,South,183,8.0,14.3,98,0.00,,,-99.99,FreeWX 2.03,2013-03-31 09:03:00,
2013-03-31 04:08:00,66.9,66.4,29.88,South,183,8.0,13.0,98,0.00,,,-99.99,FreeWX 2.03,2013-03-31 09:08:00,
2013-03-31 04:13:00,66.9,66.4,29.88,South,183,7.0,11.2,98,0.00,,,-99.99,FreeWX 2.03,2013-03-31 09:13:00,
2013-03-31 04:18:00,66.9,66.4,29.88,South,183,7.0,13.9,98,0.00,,,-99.99,FreeWX 2.03,2013-03-31 09:18:00,
2013-03-31 04:23:00,66.9,66.4,29.88,South,186,7.0,11.2,98,0.00,,,-99.99,FreeWX 2.03,2013-03-31 09:23:00,
2013-03-31 04:28:00,66.9,66.4,29.88,South,187,8.0,13.0,98,0.00,,,-99.99,FreeWX 2.03,2013-03-31 09:28:00,
2013-03-31 04:33:00,66.9,66.4,29.88,South,185,7.0,10.5,98,0.00,,,-99.99,FreeWX 2.03,2013-03-31 09:33:00,
2013-03-31 04:38:00,66.9,66.4,29.88,South,183,6.0,11.2,98,0.00,,,-99.99,FreeWX 2.03,2013-03-31 09:38:00,
2013-03-31 04:43:00,66.9,66.4,29.88,South,185,7.0,13.4,98,0.00,,,-99.99,FreeWX 2.03,2013-03-31 09:43:00,
2013-03-31 04:48:00,66.9,66.4,29.88,South,187,7.0,11.2,98,0.00,,,-99.99,FreeWX 2.03,2013-03-31 09:48:00,
2013-03-31 04:53:00,66.9,66.4,29.88,South,187,7.0,10.5,98,0.00,,,-99.99,FreeWX 2.03,2013-03-31 09:53:00,
2013-03-31 04:58:00,66.9,66.4,29.88,South,186,6.0,10.1,98,0.00,,,-99.99,FreeWX 2.03,2013-03-31 09:58:00,
2013-03-31 05:03:00,66.9,66.4,29.88,South,185,6.0,11.2,98,0.00,,,-99.99,FreeWX 2.03,2013-03-31 10:03:00,
2013-03-31 05:08:00,66.9,66.4,29.88,South,184,7.0,11.6,98,0.00,,,-99.99,FreeWX 2.03,2013-03-31 10:08:00,
2013-03-31 05:13:00,67.1,66.6,29.88,South,183,7.0,11.2,98,0.00,,,-99.99,FreeWX 2.03,2013-03-31 10:13:00,
2013-03-31 05:18:00,67.1,66.6,29.88,South,183,6.0,12.1,98,0.00,,,-99.99,FreeWX 2.03,2013-03-31 10:18:00,
2013-03-31 05:28:00,67.5,66.9,29.88,South,185,7.0,12.1,98,0.00,,,-99.99,FreeWX 2.03,2013-03-31 10:28:00,
2013-03-31 05:33:00,67.5,66.9,29.88,South,190,9.0,15.2,98,0.00,,,-99.99,FreeWX 2.03,2013-03-31 10:33:00,
2013-03-31 05:38:00,67.5,66.9,29.88,SSW,193,10.0,14.3,98,0.00,,,-99.99,FreeWX 2.03,2013-03-31 10:38:00,
2013-03-31 05:43:00,67.5,66.9,29.88,SSW,193,9.0,14.8,98,0.00,,,-99.99,FreeWX 2.03,2013-03-31 10:43:00,
2013-03-31 05:48:00,67.5,66.9,29.88,SSW,193,9.0,14.8,98,0.00,,,-99.99,FreeWX 2.03,2013-03-31 10:48:00,
2013-03-31 05:53:00,67.6,67.1,29.88,SSW,193,9.0,13.0,98,0.00,,,-99.99,FreeWX 2.03,2013-03-31 10:53:00,
2013-03-31 05:58:00,67.6,67.1,29.88,South,191,8.0,14.3,98,0.00,,,-99.99,FreeWX 2.03,2013-03-31 10:58:00,
2013-03-31 06:03:00,67.5,66.9,29.88,South,188,9.0,16.3,98,0.00,,,-99.99,FreeWX 2.03,2013-03-31 11:03:00,
2013-03-31 06:08:00,67.6,67.1,29.88,South,188,9.0,15.2,98,0.00,,,-99.99,FreeWX 2.03,2013-03-31 11:08:00,
2013-03-31 06:13:00,67.6,67.1,29.88,South,186,8.0,13.0,98,0.00,,,-99.99,FreeWX 2.03,2013-03-31 11:13:00,
2013-03-31 06:18:00,67.6,67.1,29.88,South,184,7.0,13.0,98,0.00,,,-99.99,FreeWX 2.03,2013-03-31 11:18:00,
2013-03-31 06:23:00,67.6,67.1,29.88,South,183,7.0,11.6,98,0.00,,,-99.99,FreeWX 2.03,2013-03-31 11:23:00,
2013-03-31 06:28:00,67.5,66.9,29.88,South,184,7.0,11.6,98,0.00,,,-99.99,FreeWX 2.03,2013-03-31 11:28:00,
2013-03-31 06:33:00,67.3,66.7,29.88,South,184,6.0,11.6,98,0.00,,,-99.99,FreeWX 2.03,2013-03-31 11:33:00,
2013-03-31 06:38:00,67.3,66.7,29.88,South,189,8.0,14.3,98,0.00,,,-99.99,FreeWX 2.03,2013-03-31 11:38:00,
2013-03-31 06:43:00,67.5,66.9,29.88,SSW,194,8.0,12.1,98,0.00,,,-99.99,FreeWX 2.03,2013-03-31 11:43:00,
2013-03-31 06:48:00,67.5,66.9,29.88,SSW,195,8.0,14.3,98,0.00,,,-99.99,FreeWX 2.03,2013-03-31 11:48:00,
2013-03-31 06:53:00,67.5,66.9,29.88,SSW,194,8.0,13.4,98,0.00,,,-99.99,FreeWX 2.03,2013-03-31 11:53:00,
2013-03-31 06:58:00,67.3,66.7,29.88,SSW,192,9.0,13.4,98,0.00,,,-99.99,FreeWX 2.03,2013-03-31 11:58:00,
2013-03-31 07:03:00,67.5,66.9,29.88,SSW,194,10.0,16.3,98,0.00,,,-99.99,FreeWX 2.03,2013-03-31 12:03:00,
2013-03-31 07:08:00,67.3,66.7,29.88,SSW,195,10.0,15.4,98,0.00,,,-99.99,FreeWX 2.03,2013-03-31 12:08:00,
2013-03-31 07:14:00,67.5,66.9,29.88,SSW,192,9.0,12.1,98,0.00,,,-99.99,FreeWX 2.03,2013-03-31 12:14:00,
2013-03-31 07:19:00,67.3,66.7,29.88,South,189,8.0,14.8,98,0.00,,,-99.99,FreeWX 2.03,2013-03-31 12:19:00,
2013-03-31 07:24:00,67.3,66.7,29.88,South,186,8.0,12.1,98,0.00,,,-99.99,FreeWX 2.03,2013-03-31 12:24:00,
2013-03-31 07:29:00,67.3,66.7,29.88,South,188,8.0,14.8,98,0.00,,,-99.99,FreeWX 2.03,2013-03-31 12:29:00,
2013-03-31 07:34:00,67.1,66.6,29.88,South,191,9.0,15.2,98,0.00,,,-99.99,FreeWX 2.03,2013-03-31 12:34:00,
2013-03-31 07:39:00,67.1,66.6,29.88,South,191,9.0,14.3,98,0.00,,,-99.99,FreeWX 2.03,2013-03-31 12:39:00,
2013-03-31 07:44:00,67.1,66.6,29.88,South,191,8.0,11.6,98,0.00,,,-99.99,FreeWX 2.03,2013-03-31 12:44:00,
2013-03-31 07:49:00,67.3,66.7,29.88,SSW,192,7.0,10.1,98,0.00,,,-99.99,FreeWX 2.03,2013-03-31 12:49:00,
2013-03-31 07:54:00,67.1,66.6,29.88,SSW,193,7.0,13.4,98,0.00,,,-99.99,FreeWX 2.03,2013-03-31 12:54:00,
2013-03-31 07:59:00,67.1,66.6,29.88,SSW,193,8.0,14.3,98,0.00,,,-99.99,FreeWX 2.03,2013-03-31 12:59:00,
2013-03-31 08:04:00,67.1,66.6,29.88,SSW,193,8.0,14.3,98,0.00,,,-99.99,FreeWX 2.03,2013-03-31 13:04:00,
2013-03-31 08:09:00,67.1,66.6,29.88,SSW,194,8.0,11.2,98,0.00,,,-99.99,FreeWX 2.03,2013-03-31 13:09:00,
2013-03-31 08:14:00,67.1,66.6,29.91,SSW,195,8.0,12.5,98,0.00,,,-99.99,FreeWX 2.03,2013-03-31 13:14:00,
2013-03-31 08:19:00,67.3,66.7,29.91,SSW,196,7.0,11.0,98,0.00,,,-99.99,FreeWX 2.03,2013-03-31 13:19:00,
2013-03-31 08:24:00,67.3,66.7,29.91,SSW,196,8.0,12.1,98,0.00,,,-99.99,FreeWX 2.03,2013-03-31 13:24:00,
2013-03-31 08:29:00,67.3,66.7,29.91,SSW,198,8.0,11.2,98,0.00,,,-99.99,FreeWX 2.03,2013-03-31 13:29:00,
2013-03-31 08:34:00,67.3,66.7,29.91,SSW,200,7.0,11.2,98,0.00,,,-99.99,FreeWX 2.03,2013-03-31 13:34:00,
2013-03-31 08:39:00,67.5,66.9,29.91,SSW,199,7.0,12.5,98,0.00,,,-99.99,FreeWX 2.03,2013-03-31 13:39:00,
2013-03-31 08:44:00,67.5,66.9,29.91,SSW,196,8.0,12.1,98,0.00,,,-99.99,FreeWX 2.03,2013-03-31 13:44:00,
2013-03-31 08:49:00,67.6,67.1,29.91,SSW,194,7.0,11.6,98,0.00,,,-99.99,FreeWX 2.03,2013-03-31 13:49:00,
2013-03-31 08:54:00,67.8,67.3,29.91,South,189,6.0,12.1,98,0.00,,,-99.99,FreeWX 2.03,2013-03-31 13:54:00,
2013-03-31 08:59:00,67.8,67.3,29.91,South,184,6.0,11.2,98,0.00,,,-99.99,FreeWX 2.03,2013-03-31 13:59:00,
2013-03-31 09:04:00,67.8,67.3,29.91,South,182,5.0,8.7,98,0.00,,,-99.99,FreeWX 2.03,2013-03-31 14:04:00,
2013-03-31 09:09:00,68.0,67.5,29.91,South,182,5.0,11.0,98,0.00,,,-99.99,FreeWX 2.03,2013-03-31 14:09:00,
2013-03-31 09:14:00,68.0,67.5,29.91,South,183,6.0,11.0,98,0.00,,,-99.99,FreeWX 2.03,2013-03-31 14:14:00,
2013-03-31 09:19:00,68.0,67.5,29.91,South,185,6.0,11.0,98,0.00,,,-99.99,FreeWX 2.03,2013-03-31 14:19:00,
2013-03-31 09:24:00,68.2,67.6,29.91,South,185,6.0,9.6,98,0.00,,,-99.99,FreeWX 2.03,2013-03-31 14:24:00,
2013-03-31 09:29:00,68.4,67.8,29.91,South,188,6.0,9.2,98,0.00,,,-99.99,FreeWX 2.03,2013-03-31 14:29:00,
2013-03-31 09:34:00,68.5,68.0,29.91,South,191,6.0,12.1,98,0.00,,,-99.99,FreeWX 2.03,2013-03-31 14:34:00,
2013-03-31 09:39:00,68.5,68.0,29.91,South,191,7.0,13.4,98,0.00,,,-99.99,FreeWX 2.03,2013-03-31 14:39:00,
2013-03-31 09:44:00,68.5,68.0,29.91,South,191,9.0,15.4,98,0.00,,,-99.99,FreeWX 2.03,2013-03-31 14:44:00,
2013-03-31 09:49:00,68.9,68.4,29.91,SSW,193,9.0,14.3,98,0.00,,,-99.99,FreeWX 2.03,2013-03-31 14:49:00,
2013-03-31 09:54:00,69.1,68.2,29.91,SSW,193,8.0,12.5,97,0.00,,,-99.99,FreeWX 2.03,2013-03-31 14:54:00,
2013-03-31 09:59:00,69.4,68.5,29.91,South,191,8.0,13.4,97,0.00,,,-99.99,FreeWX 2.03,2013-03-31 14:59:00,
2013-03-31 10:04:00,69.8,68.9,29.91,South,188,8.0,11.2,97,0.00,,,-99.99,FreeWX 2.03,2013-03-31 15:04:00,
2013-03-31 10:09:00,70.2,69.3,29.91,South,185,7.0,14.8,97,0.00,,,-99.99,FreeWX 2.03,2013-03-31 15:09:00,
2013-03-31 10:14:00,70.3,69.4,29.91,South,186,8.0,14.3,97,0.00,,,-99.99,FreeWX 2.03,2013-03-31 15:14:00,
2013-03-31 10:19:00,70.7,69.8,29.91,South,183,8.0,13.0,97,0.00,,,-99.99,FreeWX 2.03,2013-03-31 15:19:00,
2013-03-31 10:24:00,70.9,69.6,29.91,South,181,7.0,13.4,96,0.00,,,-99.99,FreeWX 2.03,2013-03-31 15:24:00,
2013-03-31 10:29:00,70.9,69.6,29.91,South,185,7.0,12.5,96,0.00,,,-99.99,FreeWX 2.03,2013-03-31 15:29:00,
2013-03-31 10:34:00,71.1,69.8,29.91,South,186,8.0,15.2,96,0.00,,,-99.99,FreeWX 2.03,2013-03-31 15:34:00,
2013-03-31 10:39:00,71.4,70.2,29.91,South,188,9.0,17.7,96,0.00,,,-99.99,FreeWX 2.03,2013-03-31 15:39:00,
2013-03-31 10:44:00,71.6,70.2,29.91,South,190,9.0,15.2,95,0.00,,,-99.99,FreeWX 2.03,2013-03-31 15:44:00,
2013-03-31 10:49:00,71.8,70.3,29.91,South,191,8.0,14.3,95,0.00,,,-99.99,FreeWX 2.03,2013-03-31 15:49:00,
2013-03-31 10:54:00,71.8,70.0,29.91,SSW,192,9.0,14.8,94,0.00,,,-99.99,FreeWX 2.03,2013-03-31 15:54:00,
2013-03-31 10:59:00,71.8,70.0,29.91,South,190,8.0,12.5,94,0.00,,,-99.99,FreeWX 2.03,2013-03-31 15:59:00,
2013-03-31 11:04:00,71.6,69.8,29.91,South,189,8.0,19.9,94,0.00,,,-99.99,FreeWX 2.03,2013-03-31 16:04:00,
2013-03-31 11:09:00,71.4,69.3,29.91,South,189,9.0,19.0,93,0.00,,,-99.99,FreeWX 2.03,2013-03-31 16:09:00,
2013-03-31 11:14:00,71.2,69.1,29.91,South,189,9.0,15.4,93,0.00,,,-99.99,FreeWX 2.03,2013-03-31 16:14:00,
2013-03-31 11:19:00,71.4,69.3,29.91,South,184,8.0,12.1,93,0.00,,,-99.99,FreeWX 2.03,2013-03-31 16:19:00,
2013-03-31 11:24:00,71.4,68.9,29.91,South,181,8.0,14.3,92,0.00,,,-99.99,FreeWX 2.03,2013-03-31 16:24:00,
2013-03-31 11:29:00,71.6,69.1,29.91,South,182,9.0,14.3,92,0.00,,,-99.99,FreeWX 2.03,2013-03-31 16:29:00,
2013-03-31 11:34:00,71.8,69.3,29.91,South,181,8.0,13.9,92,0.00,,,-99.99,FreeWX 2.03,2013-03-31 16:34:00,
2013-03-31 11:39:00,72.3,69.8,29.91,South,181,9.0,14.3,92,0.00,,,-99.99,FreeWX 2.03,2013-03-31 16:39:00,
2013-03-31 11:44:00,72.9,70.2,29.91,South,182,10.0,18.1,91,0.00,,,-99.99,FreeWX 2.03,2013-03-31 16:44:00,
2013-03-31 11:49:00,73.6,70.7,29.91,South,182,9.0,13.0,91,0.00,,,-99.99,FreeWX 2.03,2013-03-31 16:49:00,
2013-03-31 11:54:00,74.1,71.1,29.91,South,185,9.0,16.8,90,0.00,,,-99.99,FreeWX 2.03,2013-03-31 16:54:00,
2013-03-31 11:59:00,74.5,71.4,29.91,South,188,9.0,17.7,90,0.00,,,-99.99,FreeWX 2.03,2013-03-31 16:59:00,
2013-03-31 12:04:00,74.8,71.4,29.91,South,186,9.0,14.8,89,0.00,,,-99.99,FreeWX 2.03,2013-03-31 17:04:00,
2013-03-31 12:09:00,74.8,71.1,29.91,South,181,9.0,15.4,88,0.00,,,-99.99,FreeWX 2.03,2013-03-31 17:09:00,
2013-03-31 12:14:00,74.7,70.5,29.91,South,178,10.0,16.8,87,0.00,,,-99.99,FreeWX 2.03,2013-03-31 17:14:00,
2013-03-31 12:19:00,74.7,70.5,29.91,South,179,9.0,13.9,87,0.00,,,-99.99,FreeWX 2.03,2013-03-31 17:19:00,
2013-03-31 12:24:00,74.8,70.7,29.91,South,180,10.0,15.9,87,0.00,,,-99.99,FreeWX 2.03,2013-03-31 17:24:00,
2013-03-31 12:29:00,74.7,70.2,29.88,South,181,10.0,17.7,86,0.00,,,-99.99,FreeWX 2.03,2013-03-31 17:29:00,
2013-03-31 12:34:00,74.8,70.3,29.88,South,180,9.0,15.9,86,0.00,,,-99.99,FreeWX 2.03,2013-03-31 17:34:00,
2013-03-31 12:39:00,75.0,70.5,29.88,South,177,8.0,14.8,86,0.00,,,-99.99,FreeWX 2.03,2013-03-31 17:39:00,
2013-03-31 12:44:00,75.2,70.3,29.88,South,179,9.0,15.2,85,0.00,,,-99.99,FreeWX 2.03,2013-03-31 17:44:00,
2013-03-31 12:49:00,75.2,70.3,29.88,South,180,9.0,14.3,85,0.00,,,-99.99,FreeWX 2.03,2013-03-31 17:49:00,
2013-03-31 12:54:00,75.0,69.8,29.88,South,180,9.0,15.2,84,0.00,,,-99.99,FreeWX 2.03,2013-03-31 17:54:00,
2013-03-31 12:59:00,75.0,69.8,29.88,South,180,9.0,15.2,84,0.00,,,-99.99,FreeWX 2.03,2013-03-31 17:59:00,
2013-03-31 13:04:00,74.8,69.6,29.88,South,179,9.0,13.4,84,0.00,,,-99.99,FreeWX 2.03,2013-03-31 18:04:00,
2013-03-31 13:09:00,74.8,69.6,29.88,South,179,8.0,13.9,84,0.00,,,-99.99,FreeWX 2.03,2013-03-31 18:09:00,
2013-03-31 13:14:00,74.8,69.6,29.88,South,181,8.0,14.3,84,0.00,,,-99.99,FreeWX 2.03,2013-03-31 18:14:00,
2013-03-31 13:19:00,74.7,69.4,29.88,South,181,8.0,14.3,84,0.00,,,-99.99,FreeWX 2.03,2013-03-31 18:19:00,
2013-03-31 13:24:00,74.7,69.1,29.88,South,180,9.0,14.8,83,0.00,,,-99.99,FreeWX 2.03,2013-03-31 18:24:00,
2013-03-31 13:30:00,74.8,69.6,29.88,South,177,8.0,12.5,84,0.00,,,-99.99,FreeWX 2.03,2013-03-31 18:30:00,
2013-03-31 13:35:00,75.4,70.2,29.88,South,172,8.0,12.5,84,0.00,,,-99.99,FreeWX 2.03,2013-03-31 18:35:00,
2013-03-31 13:40:00,75.9,70.3,29.88,South,172,8.0,13.0,83,0.00,,,-99.99,FreeWX 2.03,2013-03-31 18:40:00,
2013-03-31 13:45:00,76.3,70.3,29.88,South,171,8.0,12.1,82,0.00,,,-99.99,FreeWX 2.03,2013-03-31 18:45:00,
2013-03-31 13:50:00,76.5,70.5,29.88,SSE,168,8.0,14.8,82,0.00,,,-99.99,FreeWX 2.03,2013-03-31 18:50:00,
2013-03-31 13:55:00,76.8,70.5,29.88,SSE,168,8.0,13.9,81,0.00,,,-99.99,FreeWX 2.03,2013-03-31 18:55:00,
2013-03-31 14:00:00,76.8,70.2,29.88,South,169,8.0,13.0,80,0.00,,,-99.99,FreeWX 2.03,2013-03-31 19:00:00,
2013-03-31 14:05:00,76.8,70.2,29.88,SSE,168,8.0,13.9,80,0.00,,,-99.99,FreeWX 2.03,2013-03-31 19:05:00,
2013-03-31 14:10:00,76.8,70.2,29.88,South,171,8.0,14.8,80,0.00,,,-99.99,FreeWX 2.03,2013-03-31 19:10:00,
2013-03-31 14:15:00,76.8,69.8,29.88,South,176,9.0,12.5,79,0.00,,,-99.99,FreeWX 2.03,2013-03-31 19:15:00,
2013-03-31 14:20:00,77.0,70.0,29.88,South,173,8.0,12.1,79,0.00,,,-99.99,FreeWX 2.03,2013-03-31 19:20:00,
2013-03-31 14:25:00,77.4,70.3,29.88,SSE,168,8.0,13.4,79,0.00,,,-99.99,FreeWX 2.03,2013-03-31 19:25:00,
2013-03-31 14:30:00,77.5,70.2,29.88,SSE,165,8.0,14.3,78,0.00,,,-99.99,FreeWX 2.03,2013-03-31 19:30:00,
2013-03-31 14:35:00,77.4,70.0,29.88,SSE,168,8.0,13.9,78,0.00,,,-99.99,FreeWX 2.03,2013-03-31 19:35:00,
2013-03-31 14:40:00,77.0,69.3,29.85,South,169,9.0,13.9,77,0.00,,,-99.99,FreeWX 2.03,2013-03-31 19:40:00,
2013-03-31 14:45:00,77.0,69.3,29.85,SSE,164,8.0,13.9,77,0.00,,,-99.99,FreeWX 2.03,2013-03-31 19:45:00,
2013-03-31 14:50:00,77.0,69.3,29.85,SSE,156,9.0,15.9,77,0.00,,,-99.99,FreeWX 2.03,2013-03-31 19:50:00,
2013-03-31 14:55:00,76.8,69.1,29.85,SSE,156,11.0,17.2,77,0.00,,,-99.99,FreeWX 2.03,2013-03-31 19:55:00,
2013-03-31 15:00:00,76.5,68.7,29.85,SSE,157,9.0,12.1,77,0.00,,,-99.99,FreeWX 2.03,2013-03-31 20:00:00,
2013-03-31 15:05:00,76.3,68.5,29.85,SSE,155,8.0,13.4,77,0.00,,,-99.99,FreeWX 2.03,2013-03-31 20:05:00,
2013-03-31 15:10:00,75.9,68.5,29.85,SSE,157,9.0,15.9,78,0.00,,,-99.99,FreeWX 2.03,2013-03-31 20:10:00,
2013-03-31 15:15:00,75.9,68.5,29.85,SSE,156,10.0,15.4,78,0.00,,,-99.99,FreeWX 2.03,2013-03-31 20:15:00,
2013-03-31 15:20:00,76.3,69.3,29.85,SSE,158,8.0,11.0,79,0.00,,,-99.99,FreeWX 2.03,2013-03-31 20:20:00,
2013-03-31 15:25:00,76.6,69.6,29.82,SSE,162,8.0,13.4,79,0.00,,,-99.99,FreeWX 2.03,2013-03-31 20:25:00,
2013-03-31 15:30:00,76.6,69.6,29.82,SSE,165,9.0,14.8,79,0.00,,,-99.99,FreeWX 2.03,2013-03-31 20:30:00,
2013-03-31 15:35:00,76.6,69.3,29.82,SSE,164,10.0,14.3,78,0.00,,,-99.99,FreeWX 2.03,2013-03-31 20:35:00,
2013-03-31 15:40:00,76.6,69.3,29.82,SSE,161,9.0,14.8,78,0.00,,,-99.99,FreeWX 2.03,2013-03-31 20:40:00,
2013-03-31 15:45:00,76.5,69.1,29.82,SSE,164,9.0,14.8,78,0.00,,,-99.99,FreeWX 2.03,2013-03-31 20:45:00,
2013-03-31 15:50:00,76.5,69.1,29.82,SSE,165,8.0,15.4,78,0.00,,,-99.99,FreeWX 2.03,2013-03-31 20:50:00,
2013-03-31 15:55:00,76.5,69.1,29.82,SSE,162,10.0,15.9,78,0.00,,,-99.99,FreeWX 2.03,2013-03-31 20:55:00,
2013-03-31 16:00:00,76.3,68.9,29.82,SSE,160,10.0,15.9,78,0.00,,,-99.99,FreeWX 2.03,2013-03-31 21:00:00,
2013-03-31 16:05:00,75.6,68.2,29.82,SSE,158,10.0,15.2,78,0.00,,,-99.99,FreeWX 2.03,2013-03-31 21:05:00,
2013-03-31 16:10:00,75.2,67.8,29.79,SSE,156,9.0,14.8,78,0.00,,,-99.99,FreeWX 2.03,2013-03-31 21:10:00,
2013-03-31 16:15:00,75.0,68.0,29.79,SSE,159,9.0,15.9,79,0.00,,,-99.99,FreeWX 2.03,2013-03-31 21:15:00,
2013-03-31 16:20:00,75.2,68.5,29.79,SSE,161,10.0,19.5,80,0.00,,,-99.99,FreeWX 2.03,2013-03-31 21:20:00,
2013-03-31 16:25:00,75.2,68.5,29.79,SSE,159,12.0,17.2,80,0.00,,,-99.99,FreeWX 2.03,2013-03-31 21:25:00,
2013-03-31 16:30:00,75.0,68.4,29.79,SSE,158,12.0,18.1,80,0.00,,,-99.99,FreeWX 2.03,2013-03-31 21:30:00,
2013-03-31 16:35:00,75.0,68.7,29.79,SSE,160,12.0,19.5,81,0.00,,,-99.99,FreeWX 2.03,2013-03-31 21:35:00,
2013-03-31 16:40:00,75.0,68.7,29.79,SSE,161,12.0,16.3,81,0.00,,,-99.99,FreeWX 2.03,2013-03-31 21:40:00,
2013-03-31 16:45:00,75.0,68.7,29.79,SSE,159,12.0,18.6,81,0.00,,,-99.99,FreeWX 2.03,2013-03-31 21:45:00,
2013-03-31 16:50:00,75.0,68.7,29.79,SSE,160,12.0,20.6,81,0.00,,,-99.99,FreeWX 2.03,2013-03-31 21:50:00,
2013-03-31 16:55:00,74.8,68.5,29.76,SSE,161,13.0,19.0,81,0.00,,,-99.99,FreeWX 2.03,2013-03-31 21:55:00,
2013-03-31 17:00:00,74.7,68.4,29.76,SSE,161,13.0,18.1,81,0.00,,,-99.99,FreeWX 2.03,2013-03-31 22:00:00,
2013-03-31 17:05:00,74.5,68.2,29.76,SSE,162,12.0,17.2,81,0.00,,,-99.99,FreeWX 2.03,2013-03-31 22:05:00,
2013-03-31 17:10:00,74.5,68.5,29.76,SSE,162,12.0,18.1,82,0.00,,,-99.99,FreeWX 2.03,2013-03-31 22:10:00,
2013-03-31 17:15:00,74.7,68.7,29.76,SSE,160,13.0,20.6,82,0.00,,,-99.99,FreeWX 2.03,2013-03-31 22:15:00,
2013-03-31 17:20:00,74.5,68.5,29.76,SSE,160,12.0,19.5,82,0.00,,,-99.99,FreeWX 2.03,2013-03-31 22:20:00,
2013-03-31 17:25:00,74.3,68.4,29.76,SSE,161,11.0,18.1,82,0.00,,,-99.99,FreeWX 2.03,2013-03-31 22:25:00,
2013-03-31 17:30:00,74.3,68.4,29.76,SSE,162,10.0,15.4,82,0.00,,,-99.99,FreeWX 2.03,2013-03-31 22:30:00,
2013-03-31 17:35:00,74.3,68.7,29.76,SSE,161,9.0,14.3,83,0.00,,,-99.99,FreeWX 2.03,2013-03-31 22:35:00,
2013-03-31 17:40:00,74.7,69.1,29.79,SSE,161,9.0,13.9,83,0.00,,,-99.99,FreeWX 2.03,2013-03-31 22:40:00,
2013-03-31 17:45:00,74.7,69.1,29.79,SSE,157,8.0,14.8,83,0.00,,,-99.99,FreeWX 2.03,2013-03-31 22:45:00,
2013-03-31 17:50:00,74.7,68.7,29.79,SSE,154,8.0,13.4,82,0.00,,,-99.99,FreeWX 2.03,2013-03-31 22:50:00,
2013-03-31 17:55:00,74.5,68.5,29.79,SSE,156,9.0,15.9,82,0.00,,,-99.99,FreeWX 2.03,2013-03-31 22:55:00,
2013-03-31 18:00:00,74.3,68.4,29.79,SSE,160,9.0,14.8,82,0.00,,,-99.99,FreeWX 2.03,2013-03-31 23:00:00,
2013-03-31 18:05:00,74.3,68.4,29.79,SSE,159,10.0,16.3,82,0.00,,,-99.99,FreeWX 2.03,2013-03-31 23:05:00,
2013-03-31 18:10:00,74.1,68.2,29.79,SSE,158,9.0,14.3,82,0.00,,,-99.99,FreeWX 2.03,2013-03-31 23:10:00,
2013-03-31 18:15:00,74.3,68.7,29.79,SSE,156,7.0,12.1,83,0.00,,,-99.99,FreeWX 2.03,2013-03-31 23:15:00,
2013-03-31 18:20:00,74.3,68.7,29.79,SSE,157,8.0,12.5,83,0.00,,,-99.99,FreeWX 2.03,2013-03-31 23:20:00,
2013-03-31 18:25:00,74.3,68.7,29.79,SSE,158,8.0,13.9,83,0.00,,,-99.99,FreeWX 2.03,2013-03-31 23:25:00,
2013-03-31 18:30:00,74.3,68.7,29.79,SSE,155,8.0,13.4,83,0.00,,,-99.99,FreeWX 2.03,2013-03-31 23:30:00,
2013-03-31 18:35:00,74.1,68.5,29.79,SSE,151,8.0,13.0,83,0.00,,,-99.99,FreeWX 2.03,2013-03-31 23:35:00,
2013-03-31 18:40:00,74.1,68.5,29.79,SE,146,9.0,16.8,83,0.00,,,-99.99,FreeWX 2.03,2013-03-31 23:40:00,
2013-03-31 18:45:00,73.9,68.4,29.79,SSE,147,10.0,14.8,83,0.00,,,-99.99,FreeWX 2.03,2013-03-31 23:45:00,
2013-03-31 18:50:00,73.8,68.2,29.79,SSE,149,10.0,15.2,83,0.00,,,-99.99,FreeWX 2.03,2013-03-31 23:50:00,
2013-03-31 18:55:00,73.6,68.0,29.82,SSE,147,9.0,14.8,83,0.00,,,-99.99,FreeWX 2.03,2013-03-31 23:55:00,
2013-03-31 19:00:00,73.6,68.4,29.82,SSE,148,8.0,11.6,84,0.00,,,-99.99,FreeWX 2.03,2013-04-01 00:00:00,
2013-03-31 19:05:00,73.4,68.2,29.82,SSE,150,7.0,11.2,84,0.00,,,-99.99,FreeWX 2.03,2013-04-01 00:05:00,
2013-03-31 19:10:00,73.2,68.0,29.82,SSE,147,7.0,13.0,84,0.00,,,-99.99,FreeWX 2.03,2013-04-01 00:10:00,
2013-03-31 19:15:00,72.9,68.0,29.82,SE,139,7.0,13.0,85,0.00,,,-99.99,FreeWX 2.03,2013-04-01 00:15:00,
2013-03-31 19:20:00,72.7,67.8,29.82,SE,134,6.0,11.0,85,0.00,,,-99.99,FreeWX 2.03,2013-04-01 00:20:00,
2013-03-31 19:25:00,72.5,68.0,29.82,SE,128,6.0,10.1,86,0.00,,,-99.99,FreeWX 2.03,2013-04-01 00:25:00,
2013-03-31 19:30:00,72.3,67.8,29.82,SE,125,6.0,11.2,86,0.00,,,-99.99,FreeWX 2.03,2013-04-01 00:30:00,
2013-03-31 19:35:00,72.1,68.0,29.82,ESE,122,7.0,12.1,87,0.00,,,-99.99,FreeWX 2.03,2013-04-01 00:35:00,
2013-03-31 19:40:00,71.8,67.6,29.85,ESE,111,7.0,10.5,87,0.00,,,-99.99,FreeWX 2.03,2013-04-01 00:40:00,
2013-03-31 19:45:00,71.6,67.8,29.85,ESE,105,7.0,11.2,88,0.00,,,-99.99,FreeWX 2.03,2013-04-01 00:45:00,
2013-03-31 19:50:00,71.4,68.0,29.85,East,101,8.0,12.1,89,0.00,,,-99.99,FreeWX 2.03,2013-04-01 00:50:00,
2013-03-31 19:55:00,71.4,68.4,29.85,East,96,7.0,11.2,90,0.00,,,-99.99,FreeWX 2.03,2013-04-01 00:55:00,
2013-03-31 20:00:00,71.2,68.2,29.85,East,97,8.0,13.0,90,0.00,,,-99.99,FreeWX 2.03,2013-04-01 01:00:00,
2013-03-31 20:05:00,71.1,68.0,29.85,East,101,8.0,12.1,90,0.00,,,-99.99,FreeWX 2.03,2013-04-01 01:05:00,
2013-03-31 20:10:00,71.1,68.4,29.85,East,99,8.0,13.9,91,0.00,,,-99.99,FreeWX 2.03,2013-04-01 01:10:00,
2013-03-31 20:26:00,71.2,68.7,29.88,ESE,108,9.0,13.9,92,0.00,,,-99.99,FreeWX 2.03,2013-04-01 01:26:00,
2013-03-31 20:31:00,71.4,69.3,29.88,ESE,105,9.0,15.4,93,0.00,,,-99.99,FreeWX 2.03,2013-04-01 01:31:00,
2013-03-31 20:36:00,71.4,69.3,29.88,ESE,102,9.0,16.3,93,0.00,,,-99.99,FreeWX 2.03,2013-04-01 01:36:00,
2013-03-31 20:41:00,71.4,69.3,29.88,ESE,102,10.0,16.8,93,0.00,,,-99.99,FreeWX 2.03,2013-04-01 01:41:00,
2013-03-31 20:46:00,71.4,69.3,29.88,ESE,102,10.0,16.8,93,0.00,,,-99.99,FreeWX 2.03,2013-04-01 01:46:00,
2013-03-31 20:51:00,71.4,69.3,29.88,ESE,102,9.0,13.9,93,0.00,,,-99.99,FreeWX 2.03,2013-04-01 01:51:00,
2013-03-31 20:56:00,71.4,69.6,29.91,ESE,102,9.0,16.8,94,0.00,,,-99.99,FreeWX 2.03,2013-04-01 01:56:00,
2013-03-31 21:01:00,71.4,69.3,29.91,ESE,104,10.0,16.3,93,0.00,,,-99.99,FreeWX 2.03,2013-04-01 02:01:00,
2013-03-31 21:07:00,71.6,69.8,29.91,ESE,104,10.0,16.3,94,0.00,,,-99.99,FreeWX 2.03,2013-04-01 02:07:00,
2013-03-31 21:17:00,71.4,69.6,29.91,ESE,105,11.0,19.9,94,0.00,,,-99.99,FreeWX 2.03,2013-04-01 02:17:00,
2013-03-31 21:22:00,71.4,69.6,29.91,ESE,109,12.0,21.5,94,0.00,,,-99.99,FreeWX 2.03,2013-04-01 02:22:00,
2013-03-31 21:27:00,71.4,69.6,29.94,ESE,118,11.0,14.8,94,0.00,,,-99.99,FreeWX 2.03,2013-04-01 02:27:00,
2013-03-31 21:37:00,71.4,69.6,29.94,ESE,120,11.0,18.6,94,0.00,,,-99.99,FreeWX 2.03,2013-04-01 02:37:00,
2013-03-31 21:42:00,71.2,69.4,29.91,ESE,121,13.0,19.0,94,0.00,,,-99.99,FreeWX 2.03,2013-04-01 02:42:00,
2013-03-31 21:47:00,71.1,69.3,29.91,SE,124,14.0,23.7,94,0.00,,,-99.99,FreeWX 2.03,2013-04-01 02:47:00,
2013-03-31 21:52:00,70.9,69.1,29.91,ESE,120,15.0,25.3,94,0.00,,,-99.99,FreeWX 2.03,2013-04-01 02:52:00,
2013-03-31 21:57:00,70.9,69.1,29.91,SE,126,14.0,19.9,94,0.00,,,-99.99,FreeWX 2.03,2013-04-01 02:57:00,
2013-03-31 22:02:00,70.9,69.4,29.91,SE,138,11.0,17.2,95,0.00,,,-99.99,FreeWX 2.03,2013-04-01 03:02:00,
2013-03-31 22:07:00,70.5,69.1,29.91,SE,140,12.0,21.5,95,0.00,,,-99.99,FreeWX 2.03,2013-04-01 03:07:00,
2013-03-31 22:13:00,70.3,68.9,29.85,SE,146,14.0,24.2,95,0.00,,,-99.99,FreeWX 2.03,2013-04-01 03:13:00,
2013-03-31 22:18:00,70.2,68.7,29.85,SSE,154,17.0,25.3,95,0.00,,,-99.99,FreeWX 2.03,2013-04-01 03:18:00,
2013-03-31 22:23:00,70.2,68.7,29.85,SSE,158,16.0,24.2,95,0.00,,,-99.99,FreeWX 2.03,2013-04-01 03:23:00,
2013-03-31 22:28:00,70.2,68.7,29.85,SSE,164,14.0,22.8,95,0.00,,,-99.99,FreeWX 2.03,2013-04-01 03:28:00,
2013-03-31 22:33:00,70.0,68.7,29.85,SSE,167,14.0,20.6,96,0.00,,,-99.99,FreeWX 2.03,2013-04-01 03:33:00,
2013-03-31 22:38:00,69.8,68.5,29.85,SSE,165,14.0,20.1,96,0.00,,,-99.99,FreeWX 2.03,2013-04-01 03:38:00,
2013-03-31 22:43:00,69.8,68.5,29.85,SSE,163,13.0,19.0,96,0.00,,,-99.99,FreeWX 2.03,2013-04-01 03:43:00,
2013-03-31 22:48:00,70.0,68.7,29.85,SSE,162,13.0,22.4,96,0.00,,,-99.99,FreeWX 2.03,2013-04-01 03:48:00,
2013-03-31 22:53:00,70.2,68.9,29.85,SSE,167,11.0,17.7,96,0.00,,,-99.99,FreeWX 2.03,2013-04-01 03:53:00,
2013-03-31 22:58:00,70.0,68.7,29.88,South,170,10.0,14.3,96,0.00,,,-99.99,FreeWX 2.03,2013-04-01 03:58:00,
2013-03-31 23:03:00,70.0,68.7,29.88,SSE,165,10.0,15.9,96,0.00,,,-99.99,FreeWX 2.03,2013-04-01 04:03:00,
2013-03-31 23:08:00,69.8,68.5,29.88,SSE,161,10.0,15.9,96,0.00,,,-99.99,FreeWX 2.03,2013-04-01 04:08:00,
2013-03-31 23:13:00,69.8,68.5,29.88,SSE,157,10.0,16.8,96,0.00,,,-99.99,FreeWX 2.03,2013-04-01 04:13:00,
2013-03-31 23:18:00,69.8,68.5,29.88,SSE,153,11.0,20.6,96,0.00,,,-99.99,FreeWX 2.03,2013-04-01 04:18:00,
2013-03-31 23:23:00,69.8,68.5,29.88,SSE,151,11.0,14.8,96,0.00,,,-99.99,FreeWX 2.03,2013-04-01 04:23:00,
2013-03-31 23:28:00,69.8,68.5,29.88,SSE,151,10.0,15.2,96,0.00,,,-99.99,FreeWX 2.03,2013-04-01 04:28:00,
2013-03-31 23:33:00,69.6,68.7,29.88,SSE,154,10.0,15.2,97,0.00,,,-99.99,FreeWX 2.03,2013-04-01 04:33:00,
2013-03-31 23:38:00,69.8,68.9,29.88,SSE,150,9.0,13.9,97,0.00,,,-99.99,FreeWX 2.03,2013-04-01 04:38:00,
2013-03-31 23:43:00,69.6,68.7,29.88,SSE,147,8.0,13.9,97,0.00,,,-99.99,FreeWX 2.03,2013-04-01 04:43:00,
2013-03-31 23:48:00,69.6,68.7,29.88,SSE,149,8.0,13.4,97,0.00,,,-99.99,FreeWX 2.03,2013-04-01 04:48:00,
2013-03-31 23:53:00,69.6,68.7,29.88,SSE,148,9.0,16.3,97,0.00,,,-99.99,FreeWX 2.03,2013-04-01 04:53:00,
2013-03-31 23:58:00,69.4,68.5,29.85,SSE,152,10.0,16.3,97,0.00,,,-99.99,FreeWX 2.03,2013-04-01 04:58:00,